Welcome to the New NWS' Forecast!
Most changes are behind the scenes, but click here for differences you might notice.

Regional Weather Roundup (RWR)

Issued by National Weather Service (NWS)

                            
860 
ASUS46 KSEW 180810
RWRWA 

WASHINGTON REGIONAL WEATHER ROUNDUP
NATIONAL WEATHER SERVICE SEATTLE WA
100 AM PDT TUE SEP 18 2018

NOTE:"FAIR" INDICATES FEW OR NO CLOUDS BELOW 12,000 FEET WITH NO 
SIGNIFICANT WEATHER AND/OR OBSTRUCTIONS TO VISIBILITY.

WAZ507-509-555>559-180900-
SEATTLE, TACOMA, EVERETT, AND VICINITY
  
CITY           SKY/WX    TMP DP  RH WIND       PRES   REMARKS
EVERETT        CLEAR     50  44  80 NW6       30.12S                  
BOEING FIELD   CLEAR     52  44  74 CALM      30.12S                  
RENTON         CLEAR     55  44  66 NW7       30.11S                  
SEATAC AIRPORT CLEAR     53  43  68 NE9       30.11S                  
JBLM-MCCHORD   NOT AVBL                                               
PUYALLUP       FAIR      45  45 100 CALM      30.11S                  
BREMERTON      CLEAR     42  40  92 CALM      30.12R                  
JBLM-FT LEWIS  NOT AVBL                                               
TACOMA NARROWS CLEAR     49  43  80 N3        30.11S                  
$$
 
WAZ001-503-506-510-514-515-180900-
NORTH INTERIOR
  
CITY           SKY/WX    TMP DP  RH WIND       PRES   REMARKS
BELLINGHAM     CLEAR     47  43  86 CALM      30.11S                  
FRIDAY HARBOR  CLEAR     44  41  89 CALM      30.12F                  
EASTSOUND      CLEAR     48  48 100 CALM      30.11S                  
PORT ANGELES   CLEAR     49  43  80 W8        30.13S                  
EDIZ HOOK      FAIR      49  45  84 SW7       30.13S                  
PORT TOWNSEND  FAIR      50  43  76 NW5       30.11F                  
NAS WHIDBEY    CLEAR     51  46  83 W3        30.16S                  
ARLINGTON      CLEAR     44  43  96 CALM      30.12F                  
BURLINGTON     CLOUDY    45  45 100 CALM      30.12S                  
$$
 
WAZ020-022-039-040-504-511-512-180900-
SOUTHWEST INTERIOR
  
CITY           SKY/WX    TMP DP  RH WIND       PRES   REMARKS
SHELTON        CLEAR     42  40  92 NW3       30.10S                  
OLYMPIA        CLEAR     43  41  93 CALM      30.11S                  
CHEHALIS       FAIR      45  45 100 CALM      30.11S                  
KELSO          CLEAR     47  46  97 CALM      30.10F                  
VANCOUVER      CLEAR     53  49  86 CALM      30.07S                  
SCAPPOOSE, OR  CLEAR     53  46  77 N7        30.07S                  
PORTLAND, OR   PTCLDY    56  47  71 NW6       30.07F                  
$$
 
WAZ021-516-517-180900-
WASHINGTON COAST
  
CITY           SKY/WX    TMP DP  RH WIND       PRES   REMARKS
FORKS          CLEAR     40  37  89 CALM      30.13F                  
HOQUIAM        CLEAR     47  44  90 E3        30.12S                  
ASTORIA, OR    CLEAR     46  45  96 SE5       30.11S                  
$$
 
WAZ019-023-024-040-567>569-180900-
CASCADE MOUNTAINS AND COLUMBIA GORGE
  
CITY           SKY/WX    TMP DP  RH WIND       PRES   REMARKS
STAMPEDE PASS  FOG       41  41 100 SW3       30.08F VSB 1/2          
TROUTDALE, OR  CLEAR     53  47  79 CALM      30.07S                  
HOOD RIVER, OR MOSUNNY   50  45  81 S3        30.05S                  
THE DALLES, OR MOCLDY    56  46  69 W6        30.02S                  
$$

WAZ026-027-041>044-520-521-180900-
EAST SLOPES
  
CITY           SKY/WX    TMP DP  RH WIND       PRES   REMARKS
OMAK           CLEAR     45  34  65 NW5       30.05S                  
WENATCHEE      CLEAR     54  39  57 NW8       30.03S                  
ELLENSBURG     CLEAR     49  39  68 CALM      30.04F                  
YAKIMA         PTCLDY    43  35  73 W6        30.04S                  
SUNNYSIDE ARPT MOSUNNY   46  40  81 CALM      30.03R                  
YAKIMA TC      NOT AVBL                                               
$$

WAZ028-034-035-180900-
COLUMBIA BASIN
  
CITY           SKY/WX    TMP DP  RH WIND       PRES   REMARKS
EPHRATA        CLEAR     56  32  40 NW10      30.01S                  
MOSES LAKE     CLEAR     45  34  65 CALM      30.02S                  
PASCO          MOCLDY    49  44  83 CALM      30.02S                  
RICHLAND ARPT  PTSUNNY   49  42  77 W3        30.02S                  
HERMISTON, OR  MOCLDY    49  37  63 SE3       30.01S                  
$$

WAZ036>038-180900-
NORTHEAST WASHINGTON
  
CITY           SKY/WX    TMP DP  RH WIND       PRES   REMARKS
SPOKANE GEIGER MOCLDY    46  31  55 W5        30.03S                  
SPOKANE FELTS  PTCLDY    45  37  73 NE3       30.03F                  
FAIRCHILD AFB  NOT AVBL                                               
COEURDALENE,ID PTCLDY    47  38  71 NE7       30.03F                  
DEER PARK      CLEAR     39  35  86 CALM      30.03F                  
$$

WAZ029>033-180900-
SOUTHEAST WASHINGTON
  
CITY           SKY/WX    TMP DP  RH WIND       PRES   REMARKS
PULLMAN        MOCLDY    44  31  60 CALM      30.03F                  
LEWISTON, ID   MOCLDY    57  38  48 CALM      30.00S                  
WALLA WALLA    MOCLDY    53  36  52 E6        30.01F                  
PENDLETON, OR  MOCLDY    48  34  58 SE8       30.01F                  
$$